Date,TemperatureHighF,TemperatureAvgF,TemperatureLowF,DewpointHighF,DewpointAvgF,DewpointLowF,HumidityHigh,HumidityAvg,HumidityLow,PressureMaxIn,PressureMinIn,WindSpeedMaxMPH,WindSpeedAvgMPH,GustSpeedMaxMPH,PrecipitationSumIn
2013-4-13,61.8,55.1,48.2,47.3,45.7,44.6,88,72,57,29.86,29.78,0,0,0,0.00
2013-4-14,69.2,55.9,41.4,47.7,43.8,40.1,96,68,38,30.05,29.86,0,0,0,0.00
2013-4-15,61.3,57.5,53.9,52.7,50.0,46.5,92,76,65,30.21,30.04,0,0,0,0.02
2013-4-16,74.8,63.0,50.6,62.0,55.8,48.1,93,78,63,30.23,30.05,0,0,0,0.00
2013-4-17,76.1,65.5,56.7,65.2,59.3,55.0,95,81,66,30.15,30.03,0,0,0,0.00
2013-4-18,74.8,64.6,58.9,65.7,59.6,55.6,96,84,70,30.15,29.94,0,0,0,0.02
2013-4-19,79.7,70.0,63.0,68.4,63.8,59.2,93,81,67,29.94,29.51,0,0,0,0.01
2013-4-20,63.3,55.8,44.5,39.2,35.7,32.7,69,48,38,30.24,29.98,0,0,0,0.00
2013-4-21,52.3,45.3,36.1,35.6,31.2,26.4,83,59,40,30.52,30.25,0,0,0,0.00
2013-4-22,54.4,46.3,32.6,42.1,37.9,30.3,93,73,60,30.51,30.32,0,0,0,0.00
2013-4-23,59.8,51.2,44.1,46.9,43.6,40.8,92,76,60,30.32,30.05,0,0,0,0.00
2013-4-24,76.4,60.7,41.9,60.2,51.9,40.3,96,75,54,30.06,29.72,0,0,0,0.00
2013-4-25,66.6,53.4,46.7,57.3,41.8,35.7,83,65,50,30.19,29.85,0,0,0,0.00
2013-4-27,68.2,61.5,52.2,43.7,41.0,38.6,71,49,34,30.26,30.21,0,0,0,0.00
2013-4-28,68.8,57.2,42.7,48.1,42.8,35.9,93,62,36,30.21,30.08,0,0,0,0.00
2013-4-29,59.0,56.2,53.8,58.2,54.3,47.5,97,94,69,30.09,29.97,0,0,0,0.50
2013-4-30,58.3,56.0,53.4,57.0,54.7,50.4,98,96,84,30.19,30.00,0,0,0,0.12
2013-5-1,67.4,57.5,47.6,50.6,46.5,41.0,95,70,40,30.34,30.19,0,0,0,0.06
2013-5-2,65.2,51.9,43.2,53.2,46.8,41.3,95,84,52,30.36,30.23,0,0,0,0.03
2013-5-3,47.8,46.1,44.3,45.0,43.9,42.7,94,92,90,30.24,30.22,0,0,0,0.00
2013-5-6,61.5,57.4,50.5,57.9,55.1,48.0,96,92,88,30.09,29.98,0,0,0,0.01
2013-5-7,62.9,59.8,57.5,61.7,58.9,56.4,98,97,94,29.99,29.84,0,0,0,0.89
2013-5-8,70.4,60.6,56.4,62.3,58.0,55.6,97,91,74,29.92,29.85,0,0,0,0.24
2013-5-9,74.4,61.7,52.5,65.1,58.4,51.7,98,90,67,29.91,29.83,0,0,0,0.01
2013-5-10,84.1,69.2,52.9,68.4,60.8,52.1,98,77,48,29.93,29.79,0,0,0,0.14
2013-5-11,80.5,69.0,63.0,70.3,64.7,62.1,98,87,65,29.84,29.62,0,0,0,0.25
2013-5-12,66.7,61.0,50.6,62.5,48.2,35.9,97,66,37,29.95,29.65,0,0,0,0.04
2013-5-13,62.6,51.9,40.2,42.1,36.3,30.3,88,58,36,30.07,29.94,0,0,0,0.00
2013-5-14,65.1,52.2,35.4,46.6,38.4,33.0,92,63,35,30.13,29.97,0,0,0,0.00
2013-5-15,83.6,68.5,56.8,66.6,56.6,44.7,78,66,55,29.98,29.59,0,0,0,0.00
2013-5-16,84.1,73.9,63.4,69.4,64.0,60.1,90,72,53,29.82,29.66,0,0,0,0.00
2013-5-17,79.7,69.9,56.4,62.9,55.9,52.1,94,64,41,30.07,29.82,0,0,0,0.00
2013-5-18,65.6,62.6,59.0,59.6,57.5,55.3,95,84,71,30.15,30.07,0,0,0,0.03
2013-5-19,75.1,65.9,59.9,68.9,63.8,58.5,98,93,80,30.12,30.01,0,0,0,0.01
2013-5-20,82.0,71.9,63.5,72.2,68.2,62.4,98,89,69,30.04,29.90,0,0,0,0.00
2013-5-21,83.0,73.4,66.2,73.3,69.1,65.0,97,87,70,29.92,29.80,0,0,0,0.00
2013-5-22,84.9,76.5,68.7,75.8,71.7,67.2,98,86,72,29.86,29.76,0,0,0,0.00
2013-5-23,74.6,71.3,69.0,69.5,68.4,66.9,94,91,79,29.83,29.78,0,0,0,0.01
2013-5-24,57.1,55.4,53.7,47.4,44.7,41.1,71,67,62,30.01,29.91,0,0,0,0.03
2013-5-25,66.6,61.5,52.2,45.6,42.8,40.5,67,51,42,30.08,29.99,0,0,0,0.00
2013-5-27,68.8,65.9,61.4,55.5,53.1,51.5,75,64,54,30.11,30.10,0,0,0,0.00
2013-5-30,88.1,84.2,78.4,74.3,72.3,70.8,78,68,61,30.04,30.03,0,0,0,0.00
2013-5-31,88.2,77.9,66.5,70.8,68.3,64.9,95,74,55,30.06,29.95,0,0,0,0.00
2013-6-1,69.4,67.9,66.8,66.7,64.8,64.1,92,90,89,29.96,29.94,0,0,0,0.00
2013-6-2,87.3,84.5,79.9,75.8,74.2,73.2,82,71,65,29.81,29.75,0,0,0,0.00
2013-6-3,79.8,71.5,67.2,72.7,69.2,66.6,99,93,75,29.79,29.72,0,0,0,0.84
2013-6-4,75.9,66.0,55.6,61.5,54.5,48.7,97,70,42,30.04,29.87,0,0,0,0.09
2013-6-5,77.4,67.8,52.7,62.3,57.7,51.3,96,72,48,30.09,29.98,0,0,0,0.01
2013-6-6,74.4,67.4,59.8,66.0,61.4,55.1,95,81,69,30.01,29.78,0,0,0,0.24
2013-6-7,71.0,66.4,67.0,70.7,61.7,-99.9,100,94,95,29.78,29.47,0,0,0,0.16
2013-6-8,77.9,21.3,72.2,69.4,-52.8,-99.9,87,21,67,30.00,29.59,0,0,0,0.01
2013-6-9,79.9,26.3,76.4,71.3,-43.2,-99.9,82,25,61,30.11,30.00,0,0,0,0.00
2013-6-10,81.4,20.4,76.4,76.1,-54.5,-99.9,96,23,82,30.02,29.72,0,0,0,0.00
2013-6-11,83.4,31.9,75.6,71.5,-32.5,-99.9,77,28,65,29.77,29.68,0,0,0,0.00
2013-6-12,87.8,26.4,80.3,75.9,-46.1,-99.9,76,21,61,29.78,29.70,0,0,0,0.00
2013-6-13,88.3,48.5,73.9,74.4,4.3,-99.9,87,46,62,29.73,29.36,0,0,0,0.00
2013-6-14,76.8,23.9,64.5,62.2,-47.2,-99.9,77,21,54,29.88,29.49,0,0,0,0.00
2013-6-15,-200.0,0.0,200.0,-99.9,-99.9,-99.9,0,0,100,29.99,29.88,0,0,0,0.00
2013-6-16,85.5,50.4,63.9,72.8,9.5,-99.9,95,49,60,29.94,29.79,0,0,0,0.00
2013-6-17,85.2,26.0,77.0,74.6,-44.7,-99.9,91,24,67,29.88,29.80,0,0,0,0.00
2013-6-18,-200.0,0.0,200.0,-99.9,-99.9,-99.9,0,0,100,29.83,29.71,0,0,0,0.00
2013-6-19,76.2,19.6,69.9,66.3,-56.7,-99.9,83,18,60,30.08,29.80,0,0,0,0.00
2013-6-20,79.4,28.2,72.1,63.2,-41.0,-99.9,69,21,51,30.19,30.08,0,0,0,0.00
2013-6-21,-200.0,0.0,200.0,-99.9,-99.9,-99.9,0,0,100,30.23,30.16,0,0,0,0.00
2013-6-23,81.7,52.9,77.9,75.6,16.5,-99.9,89,57,81,30.04,29.99,0,0,0,0.00
2013-6-24,90.5,21.9,81.4,78.7,-56.0,-99.9,83,17,63,30.04,29.93,0,0,0,0.00
2013-6-25,90.9,54.1,82.9,78.0,9.1,-99.9,78,43,64,29.94,29.81,0,0,0,0.00
2013-6-26,-200.0,0.0,200.0,-99.9,-99.9,-99.9,0,0,100,29.84,29.74,0,0,0,0.00
2013-6-27,77.8,17.2,69.7,74.4,-60.7,-99.9,97,21,88,29.74,29.55,0,0,0,0.00
2013-6-28,83.4,4.0,80.8,75.4,-91.3,-99.9,83,4,77,29.55,29.41,0,0,0,0.00
2013-6-29,-200.0,0.0,200.0,-99.9,-99.9,-99.9,0,0,100,29.62,29.45,0,0,0,0.00
2013-6-30,81.7,28.1,74.3,77.6,-36.3,-99.9,98,34,85,29.77,29.62,0,0,0,0.00
2013-7-1,82.2,17.6,77.7,76.8,-61.7,-99.9,90,18,80,29.92,29.77,0,0,0,0.00
2013-7-2,83.0,6.9,77.9,77.0,-85.1,-99.9,90,7,80,30.11,29.92,0,0,0,0.00
2013-7-3,85.9,36.2,78.1,78.9,-21.7,-99.9,93,38,77,30.16,30.10,0,0,0,0.00
2013-7-4,88.0,35.0,82.6,78.3,-27.2,-99.9,84,31,69,30.19,30.10,0,0,0,0.00
2013-7-5,89.2,38.2,82.1,78.6,-21.6,-99.9,82,33,68,30.16,30.05,0,0,0,0.00
2013-7-6,91.6,35.5,83.6,79.7,-28.7,-99.9,78,29,67,30.11,29.99,0,0,0,0.00
2013-7-7,90.8,26.3,85.1,80.1,-46.9,-99.9,78,21,68,30.04,29.92,0,0,0,0.00
2013-7-8,86.0,25.4,78.9,76.6,-45.7,-99.9,91,24,70,30.02,29.95,0,0,0,0.00
2013-7-9,85.1,22.7,80.1,77.7,-51.3,-99.9,86,23,74,30.03,29.92,0,0,0,0.00
2013-7-10,87.1,21.7,81.8,79.6,-54.3,-99.9,89,21,75,29.94,29.78,0,0,0,0.00
2013-7-11,84.0,25.0,77.5,74.8,-46.8,-99.9,86,23,68,29.84,29.76,0,0,0,0.00
2013-7-12,-200.0,0.0,200.0,-99.9,-99.9,-99.9,0,0,100,29.94,29.80,0,0,0,0.00
2013-7-13,84.6,30.6,79.3,77.5,-34.4,-99.9,86,30,77,30.19,29.93,0,0,0,0.00
2013-7-14,88.5,28.3,82.2,79.8,-41.7,-99.9,83,25,69,30.26,30.19,0,0,0,0.00
2013-7-15,92.2,26.8,84.5,79.7,-47.3,-99.9,82,21,63,30.23,30.10,0,0,0,0.00
2013-7-16,-200.0,0.0,200.0,-99.9,-99.9,-99.9,0,0,100,30.15,30.07,0,0,0,0.00
2013-7-17,93.7,34.3,85.0,79.5,-33.2,-99.9,81,24,56,30.12,30.01,0,0,0,0.00
2013-7-18,-200.0,0.0,200.0,-99.9,-99.9,-99.9,0,0,100,30.03,29.92,0,0,0,0.00
2013-7-19,94.8,24.3,87.5,84.0,-52.1,-99.9,77,19,65,29.93,29.79,0,0,0,0.00
2013-7-20,91.6,30.0,84.9,81.5,-39.3,-99.9,82,25,68,29.82,29.71,0,0,0,0.00
2013-7-21,92.2,27.4,78.7,78.5,-43.8,-99.9,87,23,61,29.86,29.79,0,0,0,0.00
2013-7-22,87.3,25.0,82.7,79.2,-47.7,-99.9,84,23,74,29.85,29.69,0,0,0,0.00
2013-7-23,86.3,28.9,78.8,77.7,-38.9,-99.9,88,27,71,29.68,29.56,0,0,0,0.00
2013-7-24,82.2,21.7,78.3,73.4,-53.9,-99.9,78,20,70,29.82,29.59,0,0,0,0.00
2013-7-25,-200.0,0.0,200.0,-99.9,-99.9,-99.9,0,0,100,29.83,29.82,0,0,0,0.00
2013-8-2,79.1,12.2,77.3,70.5,-73.4,-99.9,78,12,75,29.87,29.84,0,0,0,0.00
2013-8-3,79.3,22.3,71.8,71.9,-50.6,-99.9,88,23,73,29.90,29.83,0,0,0,0.00
2013-8-4,81.3,26.6,74.3,67.2,-44.5,-99.9,64,20,53,29.95,29.82,0,0,0,0.00
2013-8-5,78.8,26.5,71.9,64.4,-43.0,-99.9,74,22,56,30.02,29.93,0,0,0,0.00
2013-8-6,-200.0,0.0,200.0,-99.9,-99.9,-99.9,0,0,100,30.01,29.93,0,0,0,0.00
2013-8-7,83.1,24.3,77.3,75.0,-47.5,-99.9,87,24,76,30.00,29.92,0,0,0,0.00
2013-8-8,84.7,30.3,79.7,77.6,-35.2,-99.9,91,30,78,29.97,29.90,0,0,0,0.00
2013-8-9,90.9,33.2,80.0,80.7,-32.0,-99.9,92,29,70,29.90,29.76,0,0,0,0.00
2013-8-10,80.2,26.7,73.7,72.0,-41.2,-99.9,91,27,65,30.00,29.86,0,0,0,0.00
2013-8-11,82.5,26.8,77.8,74.6,-42.4,-99.9,81,26,72,30.03,29.94,0,0,0,0.00
2013-8-12,87.1,30.9,80.4,76.9,-35.2,-99.9,82,28,67,29.95,29.83,0,0,0,0.00
2013-8-13,84.1,25.3,77.4,74.8,-45.5,-99.9,87,25,69,29.84,29.66,0,0,0,0.00
2013-8-14,-200.0,0.0,200.0,-99.9,-99.9,-99.9,0,0,100,29.73,29.72,0,0,0,0.00
2013-9-2,86.4,46.7,76.4,77.4,-0.6,-99.9,98,46,71,29.73,29.64,0,0,0,0.00
2013-9-3,83.4,31.8,75.6,73.1,-33.6,-99.9,90,26,57,29.88,29.64,0,0,0,0.00
2013-9-4,80.2,29.3,72.0,65.6,-37.4,-99.9,73,24,55,30.00,29.88,0,0,0,0.00
2013-9-5,-200.0,0.0,200.0,-99.9,-99.9,-99.9,0,0,100,29.96,29.96,0,0,0,0.00
2013-9-12,-200.0,0.0,200.0,-99.9,-99.9,-99.9,0,0,100,29.72,29.66,0,0,0,0.00
2013-9-13,76.6,24.4,66.0,67.0,-46.4,-99.9,97,22,57,29.84,29.61,0,0,0,0.00
2013-9-14,68.6,22.3,62.8,55.2,-48.8,-99.9,68,20,56,30.08,29.84,0,-168,0,0.00
2013-9-15,75.6,32.5,48.0,59.7,-26.7,-99.9,97,31,52,30.16,30.02,0,-703,0,0.00
2013-9-16,71.4,11.2,67.0,62.1,-74.1,-99.9,79,12,67,30.14,29.96,0,-749,0,0.00
2013-9-17,64.8,26.8,51.3,50.8,-34.8,-99.9,84,28,44,30.34,30.14,0,-842,0,0.00
2013-9-18,68.5,30.0,44.5,55.2,-28.1,-99.9,96,32,53,30.27,30.11,0,-806,0,0.00
2013-9-19,75.8,31.1,50.0,62.4,-28.5,-99.9,97,32,60,30.13,30.00,0,-937,0,0.00
2013-9-20,77.0,25.6,70.5,65.6,-43.7,-99.9,76,24,64,30.02,29.89,0,-999,0,0.00
2013-9-21,-200.0,0.0,200.0,-99.9,-99.9,-99.9,0,0,100,29.91,29.88,0,-999,0,0.00
2013-9-27,67.4,24.9,65.8,60.5,-40.0,-99.9,83,30,76,30.13,30.09,0,-999,0,0.00
2013-10-2,-200.0,0.0,200.0,-99.9,-99.9,-99.9,0,0,100,29.98,29.97,0,-999,0,0.00
2013-10-3,81.6,25.8,75.3,71.7,-44.8,-99.9,81,24,66,30.03,29.96,0,-999,0,0.00
2013-10-4,84.9,52.6,59.5,72.3,18.1,-99.9,98,57,62,30.00,29.92,0,-999,0,0.00
2013-10-5,85.6,73.9,63.7,73.0,68.5,62.8,97,84,63,30.00,29.92,0,-999,0,0.00
2013-10-6,86.0,74.4,63.2,73.8,68.3,62.0,98,83,59,29.95,29.85,0,-999,0,0.00
2013-10-7,77.2,67.0,53.2,72.5,64.9,51.8,97,93,83,29.97,29.73,0,-999,0,0.00
2013-10-8,64.0,55.2,48.1,54.3,50.5,47.0,97,86,63,30.19,29.97,0,-999,0,0.03
2013-10-9,60.4,56.1,51.4,55.2,52.5,49.8,95,88,77,30.22,30.12,6,-651,7,0.16
2013-10-10,58.3,57.1,55.3,57.5,56.2,54.2,98,97,95,30.10,29.94,4,1,10,1.75
2013-10-11,63.3,61.2,58.1,62.7,60.6,57.5,100,98,97,29.97,29.90,3,1,6,2.22
2013-10-12,65.4,62.3,60.5,62.6,60.8,59.5,98,95,84,30.14,29.95,5,1,7,1.04
2013-10-13,64.4,61.3,59.9,61.1,59.4,57.1,97,94,83,30.27,30.13,4,1,10,0.03
2013-10-14,54.9,53.2,51.6,53.2,51.9,50.5,96,95,94,30.24,30.23,0,0,0,0.00
2013-10-15,70.6,59.0,48.5,59.5,54.1,47.7,100,85,58,30.23,30.07,0,0,0,0.00
2013-10-16,69.8,63.6,60.2,64.5,61.0,58.0,96,91,83,30.07,29.92,0,0,0,0.00
2013-10-17,76.1,66.4,59.6,68.1,63.3,58.8,98,90,71,29.91,29.72,0,0,0,0.01
2013-10-18,66.7,57.6,47.7,61.2,49.4,45.8,95,76,51,30.00,29.79,0,0,0,0.00
2013-10-19,63.7,55.1,45.3,59.3,52.0,44.0,96,90,65,30.00,29.78,0,0,0,0.01
2013-10-20,63.0,53.0,43.1,53.0,43.1,39.1,94,71,46,30.10,29.84,0,0,0,0.00
2013-10-21,66.3,52.2,39.3,51.3,44.8,37.7,96,78,46,30.15,29.96,0,0,0,0.00
2013-10-22,66.0,56.0,47.3,56.1,50.3,44.8,96,82,62,29.97,29.80,0,0,0,0.00
2013-10-23,57.1,49.6,43.8,47.5,43.9,40.1,95,82,57,29.88,29.63,0,0,0,0.18
2013-10-24,54.2,43.8,35.0,40.8,35.9,32.2,93,75,50,30.13,29.88,0,0,0,0.00
2013-10-25,55.6,43.3,32.5,40.0,35.3,30.4,94,75,53,30.31,30.13,0,0,0,0.01
2013-10-26,56.9,44.1,31.1,39.3,34.6,29.3,95,71,47,30.30,29.94,0,0,0,0.00
2013-10-27,61.0,48.0,37.4,44.1,39.5,34.9,93,74,50,30.14,29.94,0,0,0,0.00
2013-10-28,65.0,48.2,36.3,50.1,42.4,34.7,95,82,53,30.27,30.14,0,0,1,0.00
2013-10-29,62.9,48.9,37.8,50.5,43.6,36.5,96,83,57,30.36,30.27,0,0,0,0.00
2013-10-30,63.6,54.6,47.2,58.7,52.2,45.3,98,92,82,30.32,30.14,0,0,0,0.02
2013-10-31,69.7,62.2,52.4,62.4,58.5,51.3,98,88,76,30.19,29.79,0,0,0,0.00
2013-11-1,70.9,66.6,58.2,65.7,62.4,56.8,96,86,79,29.79,29.59,4,0,11,0.06
2013-11-2,71.1,57.7,46.5,58.6,51.5,43.3,100,82,50,29.87,29.62,0,0,1,0.04
2013-11-3,56.2,47.1,37.2,45.5,37.7,30.5,94,72,40,30.44,29.87,0,0,0,0.00
2013-11-4,45.7,38.5,31.0,31.6,28.1,24.2,83,67,46,30.62,30.44,0,0,0,0.00
2013-11-5,58.6,47.9,35.0,49.4,41.9,30.7,92,80,68,30.59,30.45,0,0,0,0.00
2013-11-6,68.1,58.3,49.8,56.1,51.9,47.4,93,80,63,30.45,30.07,0,0,0,0.00
2013-11-7,65.8,55.5,44.5,60.5,49.2,30.0,97,80,55,30.07,29.85,1,0,1,0.01
2013-11-8,55.0,42.6,32.8,35.9,30.5,28.1,88,64,43,30.31,30.07,1,0,1,0.00
2013-11-9,54.1,42.3,29.2,35.8,32.0,26.9,93,69,45,30.35,30.02,0,0,0,0.00
2013-11-10,66.1,49.2,37.6,43.4,35.0,30.5,84,60,36,30.21,29.92,0,0,0,0.00
2013-11-11,56.5,47.1,33.5,37.7,34.2,29.2,86,62,45,30.31,30.00,0,0,0,0.00
2013-11-12,50.9,42.1,30.5,40.3,28.9,19.1,75,60,46,30.38,29.96,0,0,0,0.00
2013-11-13,43.2,33.8,27.4,25.8,23.0,19.7,80,65,45,30.45,30.38,0,0,0,0.00
2013-11-14,56.4,39.4,26.1,29.3,26.3,22.2,88,63,31,30.39,30.22,0,0,0,0.00
2013-11-15,58.3,44.0,30.7,40.1,32.1,26.2,87,65,39,30.28,30.18,0,0,0,0.01
2013-11-16,53.1,49.1,43.9,50.8,47.6,40.6,97,94,86,30.31,30.23,0,0,0,0.00
2013-11-17,66.1,57.2,49.2,60.4,54.9,48.4,98,92,79,30.23,29.74,0,0,1,0.00
2013-11-18,70.3,59.2,49.4,63.0,45.4,32.5,97,64,36,29.91,29.70,0,0,0,0.02
2013-11-19,50.3,44.4,36.6,33.2,30.5,28.1,73,58,47,30.35,29.91,0,0,0,0.00
2013-11-20,44.5,36.9,30.1,31.5,28.3,25.9,89,72,58,30.55,30.35,0,0,0,0.00
2013-11-21,51.6,40.1,28.9,43.2,35.4,26.5,93,84,68,30.55,30.38,0,0,0,0.00
2013-11-22,65.8,54.2,44.2,55.4,49.9,41.5,96,86,68,30.38,29.98,0,0,0,0.01
2013-11-23,54.8,46.8,32.8,53.2,33.4,18.4,96,61,41,30.17,29.99,0,0,0,0.00
2013-11-24,33.9,28.7,23.6,18.1,12.0,9.4,64,50,39,30.51,30.18,0,0,0,0.00
2013-11-25,36.3,29.1,20.8,19.0,14.7,12.3,72,56,40,30.58,30.35,0,0,0,0.00
2013-11-26,58.4,39.4,34.0,57.4,33.3,17.9,100,80,48,30.34,29.52,0,0,0,0.01
2013-11-27,58.6,38.7,29.9,57.8,36.0,20.6,97,90,66,30.02,29.48,0,0,0,0.00
2013-11-28,38.3,31.5,26.6,24.5,20.6,18.3,81,65,46,30.48,30.02,0,0,0,0.00
2013-11-29,43.0,32.4,23.1,29.6,24.1,20.9,93,73,48,30.71,30.45,0,0,0,0.00
2013-11-30,39.0,31.0,21.7,27.1,24.0,19.2,91,76,57,30.70,30.37,0,0,0,0.00
2013-12-1,47.4,36.5,24.3,36.8,30.7,22.2,93,80,59,30.37,30.01,0,0,0,0.00
2013-12-2,49.6,42.7,38.3,42.5,37.8,35.1,93,83,64,30.01,29.86,0,0,0,0.00
2013-12-3,56.7,45.0,37.4,42.4,38.1,34.6,91,78,56,29.99,29.86,0,0,0,0.00
2013-12-4,57.4,47.6,38.0,51.2,44.7,35.6,96,90,77,30.08,29.98,0,0,0,0.00
2013-12-5,68.7,59.1,50.4,62.3,56.6,49.2,98,92,77,30.06,29.92,0,0,0,0.00
2013-12-6,64.9,52.6,39.0,62.6,51.3,37.4,98,95,92,30.15,29.88,4,1,8,0.01
2013-12-7,44.3,37.7,29.3,37.6,33.3,26.0,95,84,67,30.53,30.11,3,0,10,0.00
2013-12-8,32.8,30.7,28.0,31.5,26.8,23.1,95,86,71,30.58,30.27,2,0,5,0.00
2013-12-9,36.1,33.9,32.6,35.1,32.8,31.3,96,96,95,30.28,30.03,1,0,2,0.00
2013-12-10,35.8,34.0,32.5,34.8,32.9,30.4,100,96,91,30.10,29.97,1,0,1,0.00
2013-12-15,38.2,32.6,28.8,30.0,26.2,24.8,87,77,71,29.94,29.86,0,0,7,0.00
2013-12-16,37.4,33.3,29.7,28.8,26.3,23.2,89,75,62,30.19,29.94,5,0,16,0.00
2013-12-17,39.2,35.4,32.3,34.5,30.8,26.6,92,83,75,30.16,29.92,2,0,5,0.00
2013-12-18,41.7,32.9,26.1,32.6,26.5,22.5,95,79,53,30.22,29.97,2,0,8,0.00
2013-12-19,58.2,40.9,25.2,36.2,29.9,22.4,91,68,42,30.20,30.06,1,0,6,0.00
2013-12-20,59.0,51.7,42.4,52.0,40.0,32.0,83,65,49,30.11,29.99,1,0,4,0.00
2013-12-21,70.7,62.2,53.0,61.7,54.5,47.4,87,76,63,30.02,29.90,4,0,6,0.00
2013-12-22,71.2,64.6,59.4,65.3,61.6,58.0,97,90,82,30.02,29.82,0,0,0,0.01
2013-12-23,63.6,55.1,40.4,63.0,52.6,32.3,99,92,72,30.21,29.92,5,1,12,0.00
2013-12-24,42.3,34.7,24.5,32.5,24.5,12.2,85,67,51,30.47,30.18,4,0,10,0.00
2013-12-25,31.3,25.8,20.2,20.2,16.1,12.8,85,67,51,30.57,30.39,5,0,7,0.00
2013-12-26,42.7,30.6,22.2,26.9,23.1,19.1,90,75,49,30.39,30.22,1,0,4,0.00
2013-12-27,48.8,34.1,24.0,29.1,23.5,19.9,85,68,37,30.43,30.31,2,0,4,0.00
2013-12-28,40.8,31.5,29.7,28.2,24.2,23.1,77,74,59,30.33,30.28,1,0,1,0.00
2013-12-29,-200.0,0.0,200.0,-99.9,-99.9,-99.9,0,0,100,29.88,29.51,0,-999,0,0.00
2013-12-30,45.5,13.5,40.3,42.2,-57.7,-99.9,92,24,63,30.18,29.81,6,-690,13,0.00
2013-12-31,46.4,13.1,33.1,31.8,-60.5,-99.9,72,18,48,30.32,30.09,6,-691,7,0.00
2014-1-1,47.0,13.1,35.6,30.7,-60.5,-99.9,62,17,48,30.41,30.13,7,-691,15,0.00
2014-1-2,-200.0,0.0,200.0,-99.9,-99.9,-99.9,0,0,100,30.12,29.58,0,-999,0,0.00